GW6592 Weather Reports


Display with metric or nautical units.
time (UTC)temp
F
wind
direction
speed
MPH
gust
MPH
rain 1hr
in
rain 24hr
in
rain mn
in
humidity
%
barometer
mb
20260509054743 55 89 0.0 2.0 0.02 0.08 0.08 96 1009.0
20260509054240 55 100 2.0 2.0 0.02 0.07 0.07 96 1009.1
20260509053739 55 157 2.0 2.0 0.02 0.07 0.07 96 1009.2
20260509053235 55 20 1.0 3.0 0.07 0.07 0.07 96 1009.1
20260509052733 55 103 1.0 2.0 0.12 0.07 0.07 96 1009.1
20260509052231 55 113 2.0 4.0 0.12 0.06 0.06 96 1009.0
20260509051728 55 69 1.0 4.0 0.05 0.05 0.05 96 1009.2
20260509051226 55 119 2.0 5.0 0.02 0.04 0.04 96 1009.1
20260509050722 55 125 2.0 3.0 0.02 0.04 0.04 96 1009.1
20260509050219 55 109 1.0 2.0 0.02 0.04 0.04 96 1009.3
20260509045716 55 94 1.0 2.0 0.02 0.04 0.04 96 1008.9
20260509045213 55 66 1.0 3.0 0.00 0.03 0.03 96 1009.1
20260509044710 55 116 1.0 4.0 0.02 0.03 0.03 96 1009.2
20260509044208 55 15 0.0 2.0 0.05 0.03 0.03 96 1008.9
20260509043704 55 124 0.0 3.0 0.07 0.03 0.03 96 1008.8
20260509043200 55 41 2.0 2.0 0.07 0.02 0.02 96 1009.0
20260509042657 55 115 2.0 2.0 0.05 0.02 0.02 95 1008.9
20260509042153 55 117 1.0 4.0 0.02 0.01 0.01 95 1009.1
20260509041649 55 147 0.0 2.0 0.02 0.01 0.01 95 1009.0
20260509041147 55 121 2.0 3.0 0.05 0.01 0.01 95 1009.2
20260509040645 55 101 2.0 3.0 0.02 0.00 0.00 95 1009.2
20260509040142 55 118 1.0 2.0 0.00 0.00 0.00 95 1009.3
20260509035639 55 118 0.0 3.0 0.00 0.57 0.57 95 1009.2
20260509035135 55 69 0.0 2.0 0.00 0.57 0.57 95 1009.2
20260509034633 55 94 1.0 2.0 0.00 0.57 0.57 95 1009.4
20260509034130 55 84 1.0 2.0 0.02 0.57 0.57 95 1009.1
20260509033627 55 116 1.0 2.0 0.02 0.57 0.57 95 1009.1
20260509033124 55 111 2.0 4.0 0.00 0.57 0.57 95 1009.1
20260509032621 55 65 1.0 3.0 0.02 0.57 0.57 95 1009.3
20260509032118 55 113 2.0 2.0 0.02 0.57 0.57 95 1009.2
20260509031616 55 97 1.0 2.0 0.02 0.57 0.57 95 1009.3
20260509031113 55 113 0.0 2.0 0.02 0.57 0.57 95 1009.3
20260509030611 55 97 0.0 2.0 0.02 0.56 0.56 95 1009.0
20260509030108 55 112 2.0 2.0 0.02 0.56 0.56 95 1009.1
20260509025604 55 80 0.0 3.0 0.05 0.56 0.56 95 1009.2
20260509025059 55 40 1.0 2.0 0.05 0.56 0.56 95 1009.2
20260509024555 55 286 0.0 2.0 0.05 0.55 0.55 95 1009.3
20260509024052 55 47 0.0 3.0 0.02 0.55 0.55 94 1009.2
20260509023550 55 150 2.0 3.0 0.05 0.54 0.54 94 1009.4
20260509023046 55 108 1.0 2.0 0.07 0.54 0.54 94 1009.5
20260509022543 55 150 0.0 6.0 0.09 0.54 0.54 94 1009.4
20260509022041 55 113 2.0 4.0 0.31 0.53 0.53 94 1009.6
20260509021537 55 110 2.0 6.0 0.42 0.52 0.52 94 1009.8
20260509021034 56 148 1.0 3.0 0.31 0.47 0.47 94 1010.0
20260509020533 56 99 0.0 2.0 0.19 0.44 0.44 94 1009.6
20260509020029 56 229 0.0 3.0 0.09 0.42 0.42 94 1009.4
20260509015528 56 36 0.0 2.0 0.09 0.41 0.41 94 1009.4
20260509015025 56 92 0.0 6.0 0.09 0.40 0.40 94 1009.5
20260509014522 56 78 1.0 1.0 0.07 0.39 0.39 94 1009.5
20260509014018 56 89 0.0 2.0 0.05 0.39 0.39 94 1009.5
20260509013515 56 51 1.0 3.0 0.02 0.38 0.38 94 1009.3
20260509013011 56 301 1.0 2.0 0.02 0.38 0.38 94 1009.4
20260509012508 56 113 1.0 4.0 0.05 0.38 0.38 94 1009.4
20260509012004 56 129 2.0 2.0 0.05 0.37 0.37 94 1009.5
20260509011502 56 39 0.0 2.0 0.02 0.37 0.37 94 1009.4
20260509010959 56 111 0.0 3.0 0.02 0.37 0.37 94 1009.4
20260509010457 56 123 0.0 3.0 0.05 0.37 0.37 94 1009.2
20260509005953 56 131 1.0 2.0 0.05 0.36 0.36 94 1009.3
20260509005452 56 113 0.0 6.0 0.07 0.36 0.36 94 1009.2
20260509004951 56 113 0.0 2.0 0.07 0.35 0.35 94 1009.3
20260509004448 56 35 0.0 2.0 0.05 0.35 0.35 94 1009.2
20260509003946 56 93 1.0 3.0 0.05 0.34 0.34 94 1009.2
20260509003444 56 116 0.0 2.0 0.07 0.34 0.34 94 1009.2
20260509002941 56 55 0.0 2.0 0.05 0.33 0.33 94 1009.1
20260509002439 56 123 2.0 2.0 0.02 0.33 0.33 94 1008.9
20260509001936 56 119 0.0 2.0 0.09 0.32 0.32 94 1009.0
20260509001432 56 113 3.0 4.0 0.17 0.32 0.32 93 1009.3
20260509000929 56 353 0.0 2.0 0.17 0.30 0.30 93 1009.5
20260509000427 56 131 0.0 2.0 0.14 0.29 0.29 93 1009.6
20260508235922 56 164 0.0 1.0 0.09 0.27 0.27 93 1009.8
20260508235421 56 119 0.0 2.0 0.12 0.26 0.26 93 1009.5
20260508234917 56 89 0.0 2.0 0.12 0.26 0.26 93 1009.5
20260508234414 56 114 0.0 3.0 0.09 0.24 0.24 93 1009.6
20260508233912 56 63 0.0 2.0 0.07 0.23 0.23 92 1009.5
20260508233411 56 105 1.0 2.0 0.07 0.22 0.22 92 1009.5
20260508232907 56 269 0.0 0.0 0.12 0.22 0.22 92 1009.5
20260508232404 56 131 0.0 3.0 0.21 0.21 0.21 92 1009.3
20260508231902 56 101 1.0 2.0 0.24 0.20 0.20 92 1009.5
20260508231358 56 93 2.0 2.0 0.19 0.18 0.18 92 1009.8
20260508230855 56 92 2.0 3.0 0.17 0.16 0.16 92 1009.8
20260508230351 56 82 1.0 2.0 0.07 0.14 0.14 92 1010.3
20260508225849 56 91 2.0 3.0 0.05 0.13 0.13 91 1009.9
20260508225345 56 99 2.0 2.0 0.05 0.13 0.13 91 1009.8
20260508224844 56 91 2.0 3.0 0.05 0.12 0.12 90 1009.8
20260508224341 56 91 2.0 2.0 0.07 0.12 0.12 90 1009.5
20260508223838 56 84 2.0 3.0 0.12 0.11 0.11 89 1009.5
20260508223335 57 80 3.0 3.0 0.12 0.11 0.11 90 1009.8
20260508222833 57 87 2.0 2.0 0.07 0.09 0.09 90 1009.9
20260508222330 57 102 3.0 4.0 0.07 0.08 0.08 90 1009.9
20260508221826 57 92 2.0 3.0 0.07 0.08 0.08 89 1010.0
20260508221322 57 95 2.0 2.0 0.07 0.07 0.07 88 1010.0
20260508220819 57 116 0.0 3.0 0.07 0.07 0.07 88 1010.1
20260508220315 57 98 4.0 4.0 0.09 0.06 0.06 86 1010.1
20260508215812 58 75 3.0 4.0 0.12 0.06 0.06 85 1009.9
20260508215308 58 93 2.0 5.0 0.07 0.04 0.04 82 1009.9
20260508214805 60 63 2.0 4.0 0.05 0.04 0.04 80 1009.6
20260508214302 60 103 3.0 3.0 0.05 0.03 0.03 77 1009.6
20260508213759 61 75 1.0 5.0 0.05 0.03 0.03 73 1009.5
20260508213256 61 78 1.0 5.0 0.00 0.02 0.02 68 1009.2
20260508212752 61 104 2.0 4.0 0.00 0.02 0.02 66 1009.2
20260508212248 61 56 0.0 3.0 0.02 0.02 0.02 67 1009.2
20260508211744 62 107 3.0 3.0 0.05 0.02 0.02 67 1009.2
20260508211240 62 104 2.0 3.0 0.02 0.02 0.02 65 1008.9
20260508210738 63 78 1.0 2.0 0.00 0.01 0.01 65 1009.3
20260508210235 64 96 0.0 3.0 0.00 0.01 0.01 60 1009.1
20260508205726 64 84 1.0 3.0 0.00 0.01 0.01 60 1009.0
20260508205223 64 103 2.0 4.0 0.00 0.01 0.01 57 1008.9
20260508204719 65 78 2.0 2.0 0.00 0.01 0.01 57 1009.0
20260508204215 65 92 2.0 4.0 0.00 0.01 0.01 54 1009.3
20260508203711 65 110 2.0 2.0 0.00 0.01 0.01 53 1008.9
20260508203208 66 23 0.0 5.0 0.00 0.01 0.01 51 1009.0
20260508202704 66 136 1.0 3.0 0.00 0.01 0.01 51 1009.1
20260508202202 65 107 2.0 4.0 0.00 0.01 0.01 51 1009.0
20260508201658 66 115 2.0 3.0 0.00 0.01 0.01 51 1009.3
20260508201155 66 48 0.0 3.0 0.00 0.01 0.01 51 1009.2
20260508200652 66 114 1.0 2.0 0.00 0.01 0.01 51 1009.3
20260508200148 66 75 1.0 2.0 0.00 0.01 0.01 52 1009.2
20260508195645 66 103 0.0 3.0 0.00 0.01 0.01 54 1009.2
20260508195141 66 87 1.0 3.0 0.00 0.01 0.01 52 1009.4
20260508194638 66 61 1.0 3.0 0.00 0.01 0.01 52 1009.6
20260508194135 66 121 2.0 4.0 0.00 0.01 0.01 52 1009.8
20260508193631 67 96 1.0 4.0 0.00 0.01 0.01 53 1009.8
20260508193128 67 91 1.0 2.0 0.00 0.01 0.01 53 1010.0
20260508192625 66 78 2.0 2.0 0.00 0.01 0.01 56 1010.2
20260508192122 65 49 1.0 2.0 0.00 0.01 0.01 55 1010.1
20260508191618 65 105 2.0 4.0 0.00 0.01 0.01 53 1010.2
20260508191115 65 72 1.0 3.0 0.00 0.01 0.01 55 1010.4
20260508190613 65 92 2.0 2.0 0.00 0.01 0.01 54 1010.2
20260508190109 65 115 2.0 2.0 0.00 0.01 0.01 53 1010.5
20260508185606 65 117 3.0 4.0 0.00 0.01 0.01 53 1010.5
20260508185103 65 88 2.0 2.0 0.00 0.01 0.01 53 1010.5
20260508184601 64 105 2.0 4.0 0.00 0.01 0.01 52 1010.7
20260508184058 65 98 2.0 5.0 0.00 0.01 0.01 52 1010.7
20260508183554 65 70 1.0 4.0 0.00 0.01 0.01 52 1010.8
20260508183050 65 88 2.0 5.0 0.00 0.01 0.01 51 1010.6
20260508182547 65 97 3.0 5.0 0.00 0.01 0.01 52 1010.8
20260508182043 65 115 1.0 4.0 0.00 0.01 0.01 50 1010.9
20260508181538 65 119 1.0 2.0 0.00 0.01 0.01 49 1010.7
20260508181036 65 107 4.0 4.0 0.00 0.01 0.01 49 1011.0
20260508180533 66 69 2.0 4.0 0.00 0.01 0.01 50 1011.0
20260508180029 66 48 1.0 3.0 0.00 0.01 0.01 52 1011.0
20260508175526 67 106 1.0 2.0 0.00 0.01 0.01 51 1010.9
20260508175023 67 128 4.0 6.0 0.00 0.01 0.01 49 1011.0
20260508174521 67 198 1.0 4.0 0.00 0.01 0.01 50 1010.9
20260508174017 67 115 3.0 6.0 0.07 0.01 0.01 50 1011.0
20260508173514 67 24 0.0 5.0 0.07 0.01 0.01 50 1011.1
20260508173010 66 87 1.0 4.0 0.00 0.00 0.00 53 1011.0
20260508172508 66 77 4.0 4.0 0.00 0.00 0.00 53 1011.3
20260508172004 66 95 1.0 6.0 0.00 0.00 0.00 49 1011.3
20260508171501 67 83 1.0 4.0 0.00 0.00 0.00 49 1011.3
20260508170957 66 83 3.0 6.0 0.00 0.00 0.00 52 1011.6
20260508170454 66 96 1.0 5.0 0.00 0.00 0.00 51 1011.7
20260508165951 67 96 1.0 3.0 0.00 0.00 0.00 50 1011.9
20260508165449 66 77 2.0 3.0 0.00 0.00 0.00 53 1011.7
20260508164944 65 109 1.0 4.0 0.00 0.00 0.00 53 1011.9
20260508164442 65 58 2.0 3.0 0.00 0.00 0.00 56 1012.1
20260508163939 64 79 1.0 4.0 0.00 0.00 0.00 52 1012.0
20260508163437 64 63 3.0 7.0 0.00 0.00 0.00 51 1012.3
20260508162932 65 81 2.0 6.0 0.00 0.00 0.00 51 1012.4
20260508162430 65 57 4.0 6.0 0.00 0.00 0.00 50 1012.2
20260508161927 66 48 3.0 8.0 0.00 0.00 0.00 51 1012.4
20260508161424 67 85 3.0 6.0 0.00 0.00 0.00 49 1012.5
20260508160921 66 58 2.0 4.0 0.00 0.00 0.00 51 1012.3
20260508160420 66 83 1.0 4.0 0.00 0.00 0.00 50 1012.4
20260508155915 66 77 4.0 5.0 0.00 0.00 0.00 51 1012.5
20260508155413 67 94 2.0 4.0 0.00 0.00 0.00 51 1012.3
20260508154910 67 92 2.0 4.0 0.00 0.00 0.00 51 1012.3
20260508154407 66 80 2.0 4.0 0.00 0.00 0.00 51 1012.3
20260508153904 66 70 4.0 4.0 0.00 0.00 0.00 51 1012.3
20260508153401 65 105 0.0 3.0 0.00 0.00 0.00 54 1012.6
20260508152857 64 94 2.0 4.0 0.00 0.00 0.00 54 1012.4
20260508152353 64 86 3.0 4.0 0.00 0.00 0.00 52 1012.5
20260508151850 64 88 3.0 6.0 0.00 0.00 0.00 51 1012.6
20260508151347 64 74 3.0 10.0 0.00 0.00 0.00 50 1012.4
20260508150843 64 71 5.0 6.0 0.00 0.00 0.00 51 1012.4
20260508150340 63 61 1.0 5.0 0.00 0.00 0.00 52 1012.6
20260508145836 63 68 2.0 6.0 0.00 0.00 0.00 51 1012.6
20260508145332 62 86 3.0 4.0 0.00 0.00 0.00 52 1012.5
20260508144829 62 14 4.0 8.0 0.00 0.00 0.00 51 1012.6
20260508144327 62 84 3.0 5.0 0.00 0.00 0.00 53 1012.7
20260508143825 61 44 5.0 8.0 0.00 0.00 0.00 53 1013.0
20260508143321 61 98 1.0 6.0 0.00 0.00 0.00 53 1012.9
20260508142818 61 33 3.0 7.0 0.00 0.00 0.00 53 1012.8
20260508142315 60 76 6.0 7.0 0.00 0.00 0.00 53 1012.9
20260508141811 60 66 3.0 8.0 0.00 0.00 0.00 54 1013.1
20260508141309 60 84 3.0 4.0 0.00 0.00 0.00 55 1013.1
20260508140806 59 71 4.0 5.0 0.00 0.00 0.00 54 1012.9
20260508140303 59 73 2.0 6.0 0.00 0.00 0.00 54 1013.1
20260508135758 59 68 3.0 5.0 0.00 0.00 0.00 55 1013.4
20260508135255 58 87 2.0 6.0 0.00 0.00 0.00 55 1013.3
20260508134750 58 78 4.0 7.0 0.00 0.00 0.00 54 1013.1
20260508134248 59 107 1.0 8.0 0.00 0.00 0.00 54 1013.4
20260508133744 58 80 3.0 4.0 0.00 0.00 0.00 56 1013.1
20260508133242 58 92 4.0 5.0 0.00 0.00 0.00 55 1013.4
20260508132740 58 77 4.0 6.0 0.00 0.00 0.00 54 1013.3
20260508132237 58 71 4.0 6.0 0.00 0.00 0.00 53 1013.2
20260508131732 58 70 4.0 5.0 0.00 0.00 0.00 54 1013.3
20260508131229 58 82 3.0 6.0 0.00 0.00 0.00 52 1013.3
20260508130726 58 55 3.0 6.0 0.00 0.00 0.00 53 1013.3
20260508130223 57 94 2.0 3.0 0.00 0.00 0.00 54 1013.4
20260508125718 56 89 3.0 3.0 0.00 0.00 0.00 56 1013.3
20260508125215 57 66 3.0 5.0 0.00 0.00 0.00 53 1013.1
20260508124714 56 82 3.0 5.0 0.00 0.00 0.00 55 1013.2
20260508124210 55 63 2.0 5.0 0.00 0.00 0.00 57 1013.1
20260508123709 54 86 4.0 4.0 0.00 0.00 0.00 60 1013.3
20260508123206 53 72 3.0 5.0 0.00 0.00 0.00 61 1013.2
20260508122702 53 64 2.0 4.0 0.00 0.00 0.00 61 1013.2
20260508122159 53 80 4.0 5.0 0.00 0.00 0.00 60 1013.4
20260508121657 53 81 2.0 3.0 0.00 0.00 0.00 61 1013.3
20260508121155 53 120 2.0 5.0 0.00 0.00 0.00 59 1013.4
20260508120652 55 47 2.0 4.0 0.00 0.00 0.00 57 1013.3
20260508120150 54 87 3.0 5.0 0.00 0.00 0.00 58 1013.0
20260508115648 53 77 3.0 4.0 0.00 0.00 0.00 60 1013.1
20260508115144 53 88 2.0 3.0 0.00 0.00 0.00 59 1013.1
20260508114641 53 72 3.0 4.0 0.00 0.00 0.00 60 1013.2
20260508114137 51 87 2.0 3.0 0.00 0.00 0.00 63 1013.0
20260508113634 50 75 3.0 4.0 0.00 0.00 0.00 64 1012.9
20260508113133 49 91 2.0 3.0 0.00 0.00 0.00 65 1013.1
20260508112629 49 84 3.0 4.0 0.00 0.00 0.00 66 1013.1
20260508112126 49 105 3.0 4.0 0.00 0.00 0.00 66 1013.0
20260508111622 49 102 2.0 3.0 0.00 0.00 0.00 66 1013.2
20260508111120 49 84 2.0 3.0 0.00 0.00 0.00 66 1013.0
20260508110618 49 89 2.0 4.0 0.00 0.00 0.00 66 1012.9
20260508110114 48 89 2.0 3.0 0.00 0.00 0.00 66 1013.0
20260508105613 48 94 3.0 3.0 0.00 0.00 0.00 66 1012.7
20260508105111 48 84 2.0 4.0 0.00 0.00 0.00 66 1012.9
20260508104608 48 88 2.0 3.0 0.00 0.00 0.00 66 1012.9
20260508104105 48 96 2.0 4.0 0.00 0.00 0.00 66 1012.9
20260508103602 49 89 2.0 3.0 0.00 0.00 0.00 66 1013.0
20260508103059 49 94 2.0 3.0 0.00 0.00 0.00 66 1013.2
20260508102557 49 89 2.0 4.0 0.00 0.00 0.00 65 1013.0
20260508102054 49 88 2.0 3.0 0.00 0.00 0.00 65 1012.8
20260508101552 49 109 1.0 5.0 0.00 0.00 0.00 64 1012.8
20260508101048 49 101 3.0 3.0 0.00 0.00 0.00 64 1013.0
20260508100547 49 79 3.0 4.0 0.00 0.00 0.00 64 1012.9
20260508100043 49 86 2.0 3.0 0.00 0.00 0.00 64 1012.8
20260508095540 49 93 2.0 3.0 0.00 0.00 0.00 64 1012.8
20260508095037 50 97 2.0 3.0 0.00 0.00 0.00 64 1013.0
20260508094534 50 79 1.0 3.0 0.00 0.00 0.00 63 1012.9
20260508094031 50 103 3.0 4.0 0.00 0.00 0.00 63 1012.8
20260508093528 50 101 2.0 4.0 0.00 0.00 0.00 65 1012.9
20260508093026 50 85 2.0 3.0 0.00 0.00 0.00 64 1012.9
20260508092523 50 83 3.0 3.0 0.00 0.00 0.00 63 1012.9
20260508092022 50 84 3.0 3.0 0.00 0.00 0.00 63 1012.9
20260508091518 50 84 2.0 4.0 0.00 0.00 0.00 65 1012.8
20260508091015 50 89 2.0 3.0 0.00 0.00 0.00 67 1012.9
20260508090514 50 86 2.0 3.0 0.00 0.00 0.00 69 1013.0
20260508090010 50 102 2.0 2.0 0.00 0.00 0.00 71 1012.9
20260508085506 50 81 2.0 2.0 0.00 0.00 0.00 71 1013.1
20260508085003 51 104 2.0 3.0 0.00 0.00 0.00 71 1013.1
20260508084500 51 86 1.0 3.0 0.00 0.00 0.00 70 1013.2
20260508083958 51 69 3.0 3.0 0.00 0.00 0.00 70 1013.1
20260508083454 51 85 3.0 3.0 0.00 0.00 0.00 69 1013.3
20260508082950 51 82 2.0 3.0 0.00 0.00 0.00 69 1013.3
20260508082447 51 92 2.0 3.0 0.00 0.00 0.00 68 1013.1
20260508081945 51 94 2.0 2.0 0.00 0.00 0.00 68 1013.3
20260508081441 52 84 2.0 3.0 0.00 0.00 0.00 67 1013.6
20260508080937 52 87 2.0 4.0 0.00 0.00 0.00 65 1013.3
20260508080436 52 77 0.0 3.0 0.00 0.00 0.00 63 1013.5
20260508075932 52 71 3.0 4.0 0.00 0.00 0.00 63 1013.5
20260508075430 52 97 2.0 3.0 0.00 0.00 0.00 63 1013.3
20260508074927 52 96 3.0 3.0 0.00 0.00 0.00 62 1013.4
20260508074424 53 93 2.0 4.0 0.00 0.00 0.00 61 1013.2
20260508073921 53 86 3.0 3.0 0.00 0.00 0.00 60 1013.5
20260508073419 53 75 6.0 6.0 0.00 0.00 0.00 58 1013.4
20260508072916 53 77 5.0 6.0 0.00 0.00 0.00 57 1013.6
20260508072412 53 80 2.0 6.0 0.00 0.00 0.00 58 1013.5
20260508071909 52 83 3.0 6.0 0.00 0.00 0.00 58 1013.6
20260508071407 52 86 3.0 4.0 0.00 0.00 0.00 58 1013.7
20260508070905 52 95 3.0 6.0 0.00 0.00 0.00 58 1013.5
20260508070402 52 93 3.0 4.0 0.00 0.00 0.00 57 1013.6
20260508065900 52 83 3.0 3.0 0.00 0.00 0.00 57 1013.4
20260508065358 52 93 3.0 4.0 0.00 0.00 0.00 56 1013.5
20260508064856 52 88 2.0 3.0 0.00 0.00 0.00 57 1013.4
20260508064353 52 101 2.0 3.0 0.00 0.00 0.00 57 1013.5
20260508063851 52 80 3.0 4.0 0.00 0.00 0.00 57 1013.6
20260508063343 52 97 4.0 5.0 0.00 0.00 0.00 57 1013.8
20260508062840 52 92 2.0 5.0 0.00 0.00 0.00 57 1013.6
20260508062337 52 80 3.0 4.0 0.00 0.00 0.00 57 1013.9
20260508061834 52 78 2.0 4.0 0.00 0.00 0.00 57 1013.8
20260508061331 52 93 3.0 4.0 0.00 0.00 0.00 58 1013.8
20260508060827 52 91 2.0 3.0 0.00 0.00 0.00 59 1013.7
20260508060325 52 95 2.0 3.0 0.00 0.00 0.00 59 1013.7
20260508055820 52 92 2.0 3.0 0.00 0.00 0.00 59 1013.7
20260508055318 52 103 2.0 3.0 0.00 0.00 0.00 58 1013.9
20260508054814 52 96 2.0 3.0 0.00 0.00 0.00 59 1013.9